Погода Мыс Стерлегова

Погода Мыс Стерлегова : погода сейчас, прогноз погоды и архив. Всё, что Вы хотите узнать о погоде Мыс Стерлегова!

Поиск расширенной информации на нашем сайте:

Другие новости

Новости СМИ2

Главная страница сайта

Новости сайта

02.10.2013

Напоминаем, что на нашем новом сайте вы можете получить высокодетализированные прогнозы погоды по пунктам России, СНГ и мира (включающие важные для авиации метеовеличины, такие как направление и скорость ветра, видимость, явления погоды, количество и форма облачности, нижняя и верхняя граница облачности), а также ознакомиться с разнообразными материалами по авиационной метеорологии и подборкой полезных ссылок на эту тему.

Сайт Метеоцентр.Азия посвящён разработке технологий оптимизации авиаметеорологического обслуживания, включая проектирование и перспективное создание нескольких автоматизированных авиаметеорологических систем:
- система выпуска высокодетальных прогностических карт явлений погоды для нижнего воздушного пространства по России и ближнему зарубежью;
- система верификации прогнозов TAF (выпускаемых синоптиками официальных АМСГ РФ и ближнего зарубежья) и AUTOTAF (выпускаемых сайтом Метеоцентр.Азия) - выявление ошибок, онлайн-сопоставление с фактической погодой METAR, автоматическое внесение коррективов в прогнозы при резком отклонении фактической погоды от прогноза, подсчёт оправдываемости прогнозов по элементам и в целом;
- система обработки, анализа и отображения авиаметеорологической информации для применения провайдерами метеорологической информации.


Погода Мыс Стерлегова - сегодня

Время (UTC), дата Ветер
(°,м/с) 
Видим.   Явления Облачность Т
(°С)
Тd
(°С)
f(%) Тe
(°С)
Pmin
(гПа)
dP
(гПа)
Po
(мм)
O2
(г/м3)
Тmin Tmax R s Состояние
почвы
06 25.05.17 020 (С) 20000 м    10/10 180 м 
[St]
-6.8 -8.1 90 -11  1007.2  754  313           
09 25.05.17 060 (СВ) 20000 м    10/10 270 м 
[St]
-5.5 -7.1 88 -10  1007.3  0.1  755  311           
12 25.05.17 050 (СВ) 20000 м    10/10 180 м 
[St]
-7 -8 93 -12  1007.7  0.1  755  313    -5.3       
15 25.05.17 040 (СВ) 20000 м    10/10 180 м 
[St]
-7.5 -8.4 93 -12  1007.4  -0.3  755  314           
18 25.05.17 040 (СВ) 20000 м    10/3 300 м средняя, верхняя 
[St|Ac trans|Ci fib]
-9.9 -11.1 91 -14  1007  -0.4  754  316           
21 25.05.17 020 (С) 20000 м    9/0 средняя, верхняя 
[Ac trans|Ci fib]
-13.2 -14.6 89 -18  1006.8  -0.2  754  321           
00 26.05.17 050 (СВ) 20000 м    9/0 верхняя 
[Ci fib]
-12.4 -13.9 89 -18  1006.8  754  320  -13.5      17  неравномерный
сухой снег
100% 
03 26.05.17 050 (СВ) 8{10}  20000 м  позёмок  10/3 300 м средняя, верхняя 
[Sc|Ac trans|Ci fib]
-8.9 -11.3 83 -15  1006.8  754  315           
06 26.05.17 050 (СВ) 20000 м    10/4 300 м средняя 
[Sc|Ac As]
-6.5 -8.8 84 -11  1007.3  0.5  755  312           
09 26.05.17 050 (СВ) 8-10{10}  20000 м  позёмок  10/5 300 м средняя 
[Sc|Ac As]
-7.3 -9.4 85 -13  1007.6  0.3  755  313           
12 26.05.17 060 (СВ) 8{10}  20000 м  позёмок  10/5 300 м средняя, верхняя 
[Sc|Ac trans|Ci fib]
-6.8 -8.9 85 -13  1008.7  1.1  756  313    -6.1       
15 26.05.17 060 (СВ) 20000 м    9/3 300 м средняя, верхняя 
[Sc|Ac trans|Ci fib]
-6.9 -8.7 87 -12  1009.4  0.7  756  313           
18 26.05.17 060 (СВ) 20000 м    8/3 300 м средняя, верхняя 
[Sc|Ac trans|Ci fib]
-8.3 -9.6 90 -13  1009.8  0.4  756  315           
21 26.05.17 070 (В) 20000 м    8/1 300 м средняя, верхняя 
[Sc|Ac trans|Ci fib]
-8.6 -9.8 91 -13  1010.3  0.5  757  316           
00 27.05.17 060 (СВ) 20000 м    9/0 средняя, верхняя 
[Ac trans|Ci fib]
-9.5 -11.3 87 -12  1010.9  0.6  757  317  -9.5      17  неравномерный
сухой снег
100% 
03 27.05.17 100 (В) 20000 м    10/1 600 м средняя, верхняя 
[Sc|Ac trans|Ci fib]
-5.2 -8.6 77 -8  1011.5  0.6  758  312           
06 27.05.17 110 (В) 20000 м    8/0 средняя, верхняя 
[Ac trans|Ci fib]
-3.6 -7.7 73 -5  1012.6  1.1  758  311           
09 27.05.17 110 (В) 20000 м    6/0 средняя, верхняя 
[Ac trans|Ci fib]
-3 -7.3 72 -3  1013.5  1.1  759  310           
12 27.05.17 120 (ЮВ) 20000 м    10/9 240 м верхняя 
[St|Ci fib]
-4.4 -6.5 85 -4  1014.8  1.3  760  312    -1.8       
15 27.05.17 тихо ()   20000 м    10/9 240 м верхняя 
[St|Ci fib]
-4.7 -6.6 87 -5  1015.6  0.8  761  313           
18 27.05.17 160 (Ю) 20000 м    10/10 180 м 
[St]
-5.9 -7 92 -6  1016.6  761  314           
21 27.05.17 260 (З) 20000 м    10/10 240 м 
[St]
-5.3 -7 88 -5  1017.8  1.2  762  314           
00 28.05.17 340 (С) 20000 м    9/9 270 м 
[St]
-5.1 -6.6 89 -6  1019  1.2  763  314  -6      17  неравномерный
сухой снег
100% 
03 28.05.17 260 (З) 20000 м    10/10 210 м 
[St]
-3.3 -5.3 86 -3  1019.8  0.8  764  312           
06 28.05.17 280 (З) 20000 м    10/10 420 м 
[Sc]
-1.8 -4.8 80 -1  1020.3  0.4  764  311           
Время (UTC), дата Ветер
(°,м/с) 
Видим.   Явления Облачность Т
(°С)
Тd
(°С)
f(%) Тe
(°С)
Pmin
(гПа)
dP
(гПа)
Po
(мм)
O2
(г/м3)
Тmin Tmax R s Состояние
почвы

Для получения пояснительной информации подведите курсор к названию столбца.

ПОГОДА Мыс Стерлегова - архив

Всё, что Вы хотите узнать о погоде Мыс Стерлегова - удобно и подробно!

Выберите нужную дату (начиная с 1 января 2015* года) и нажмите кнопку "Найти".
Будут отображены архивные сводки погоды по пункту Мыс Стерлегова, начиная с указанной даты.


Отображать данные в формате CSV (для использования в таблицах Excel)


Внимание! Наш архив погоды предназначен исключительно для личного некоммерческого использования в познавательных целях. Если Вам необходимы официальные справки о состоянии погоды (для производственных, юридических, коммерческих и т.п. целей), обращайтесь в органы Росгидромета.

*Примечание: данная дата относится к архиву по метеостанциям СССР (Россия, СНГ, Балтия).
Архив по метеостанциям Зарубежной Европы и Азии (кроме Китая) хранится 10 дней, по другим регионам земного шара (Китай, Африка, Америка, Австралия, Океания) - 1 день.

Мыс Стерлегова - район местоположения метеостанции


Название, широта, долгота, высота метеостанции:
Мыс Стерлегова 75.4°ш. 88.8°д. 10 м над ур. моря [Российская Федерация]

Дополнительная информация

В oтличие oт бoльшинства пoгoдных сайтoв мы публикуем пoдрoбную метеoинфoрмацию в детальнoм прoфессиoнальнoм фoрмате.

Характеристики температуры и влажнoсти вoздуха измеряются на высoте 2 м в тени вдали oт зданий и деревьев.
Скoрoсть ветра измеряется на высoте 10 м (на урoвне рoста челoвека скoрoсть ветра ниже в 1.5-2 раза). Если метеoстанция нахoдится в гoрoде или в лесу, тo скoрoсть ветра занижена на 2-4 м/с пo сравнению с oткрытым местoм. Скoрoсть ветра над акватoриями крупных рек и oзёр, а также на вершинах хoлмoв на 2-5 м/с выше, чем в oбычных услoвиях.
Атмoсфернoе давление в разных тoчках местнoсти мoжет значительнo oтличаться oт давления на метеoстанции, в зависимoсти oт услoвий рельефа (при пoдъёме на 10 м давление пoнижается примернo на 1 мм рт.ст.).